TimeCDT,TemperatureF,Dew PointF,Humidity,Sea Level PressureIn,VisibilityMPH,Wind Direction,Wind SpeedMPH,Gust SpeedMPH,PrecipitationIn,Events,Conditions,WindDirDegrees,DateUTC
12:53 AM,37.0,35.1,93,30.29,10.0,NNE,3.5,-,N/A,,Clear,30,2012-10-06 05:53:00
1:53 AM,36.0,34.0,93,30.30,10.0,NNE,4.6,-,N/A,,Clear,20,2012-10-06 06:53:00
2:53 AM,36.0,34.0,93,30.31,10.0,NNE,3.5,-,N/A,,Clear,30,2012-10-06 07:53:00
3:53 AM,34.0,32.0,92,30.30,10.0,North,4.6,-,N/A,,Clear,10,2012-10-06 08:53:00
4:53 AM,35.6,35.6,100,30.29,10.0,North,3.5,-,N/A,,Clear,360,2012-10-06 09:53:00
5:53 AM,37.9,35.1,89,30.27,10.0,Variable,5.8,-,N/A,,Mostly Cloudy,0,2012-10-06 10:53:00
6:53 AM,39.0,36.0,89,30.28,10.0,Variable,4.6,-,N/A,,Overcast,0,2012-10-06 11:53:00
7:53 AM,39.9,36.0,86,30.30,10.0,Calm,Calm,-,N/A,,Mostly Cloudy,0,2012-10-06 12:53:00
8:53 AM,41.0,37.4,87,30.28,10.0,Calm,Calm,-,N/A,,Overcast,0,2012-10-06 13:53:00
9:53 AM,43.0,37.9,82,30.33,10.0,Calm,Calm,-,N/A,,Overcast,0,2012-10-06 14:53:00
10:53 AM,44.1,37.0,76,30.35,10.0,WNW,3.5,-,N/A,,Overcast,300,2012-10-06 15:53:00
11:53 AM,46.0,37.9,73,30.34,10.0,North,5.8,-,N/A,,Overcast,10,2012-10-06 16:53:00
12:53 PM,46.9,37.0,68,30.35,10.0,North,6.9,-,N/A,,Overcast,360,2012-10-06 17:53:00
1:53 PM,46.9,33.1,59,30.31,10.0,NNE,9.2,-,N/A,,Overcast,20,2012-10-06 18:53:00
2:53 PM,46.9,32.0,56,30.30,10.0,NNE,8.1,-,N/A,,Overcast,30,2012-10-06 19:53:00
3:53 PM,46.0,33.1,61,30.29,10.0,NNE,6.9,-,N/A,,Overcast,30,2012-10-06 20:53:00
4:53 PM,44.1,32.0,63,30.29,10.0,North,9.2,-,N/A,,Overcast,10,2012-10-06 21:53:00
5:53 PM,44.6,33.8,66,30.27,10.0,North,5.8,-,N/A,,Overcast,360,2012-10-06 22:53:00
6:53 PM,44.1,32.0,63,30.30,10.0,North,5.8,-,N/A,,Overcast,10,2012-10-06 23:53:00
7:53 PM,43.0,36.0,76,30.32,10.0,North,5.8,-,N/A,,Overcast,350,2012-10-07 00:53:00
8:53 PM,43.0,36.0,76,30.32,10.0,NNW,3.5,-,N/A,,Overcast,330,2012-10-07 01:53:00
9:53 PM,42.1,37.0,82,30.32,10.0,Calm,Calm,-,N/A,,Overcast,0,2012-10-07 02:53:00
10:53 PM,41.0,30.9,67,30.32,10.0,North,6.9,-,N/A,,Overcast,360,2012-10-07 03:53:00
11:53 PM,39.9,32.0,73,30.32,10.0,North,3.5,-,N/A,,Overcast,360,2012-10-07 04:53:00